{"data":{"norad_id":53294,"epoch":"2026-05-25T03:28:59.164608Z","epoch_age_seconds":62193,"freshness":"FRESH","line1":"1 53294U 22086BE  26145.14512922 -.00002766  00000+0 -15575-3 0  9993","line2":"2 53294  53.2128 190.7339 0000898  71.1714 288.9375 15.08847713212915","mean_motion":15.08847713,"eccentricity":8.98e-5,"inclination_deg":53.2128,"raan_deg":190.7339,"arg_perigee_deg":71.1714,"mean_anomaly_deg":288.9375,"bstar":-0.00015575,"rev_number":21291,"period_min":95.437066815503,"perigee_km":539.09858996731,"apogee_km":540.34103705102,"semimajor_km":6917.8568135092,"source":"CELESTRAK","updated_at":"2026-05-25T13:38:17.392835Z"}}